Retour au catalogue

HJ-1A

ActifScienceSSO
NORAD 33320·PAYLOAD·🇨🇳 China

Lancé Sep 6, 2008 depuis Taiyuan Satellite Launch Center

Loading…

Prochains Passages (prochaines 24 heures)

TLE

FraisSource: Space-Track

Époque: Sep 14, 2026, 15:17 UTC

1 33320U 08041A   26257.63692100  .00000320  00000-0  44423-4 0  9999
2 33320  97.6779 240.0704 0018085 200.8350 159.2130 14.84157684971674

Suivez HJ-1A en temps réel avec AllMySat

Download on the App Store